Location: New Canada
(47.1017°N, 68.5042°W)
Time: 21:43:43
(UTC+00:00)

NANOSAT C BR1 - Visible Passes

Search period start: 31 March 2023 00:00
Search period end: 10 April 2023 00:00
Orbit: 575 x 590 km, 98.0° (Epoch: 31 March)

Date Brightness Start Highest point End Pass type
(mag) Time Alt. Az. Time Alt. Az. Time Alt. Az.
31 Mar ? 06:10:59 10° NE 06:11:50 13° ENE 06:11:50 13° ENE visible
31 Mar ? 07:45:01 10° N 07:48:14 46° NNW 07:48:14 46° NNW visible
01 Apr ? 06:16:32 10° NE 06:17:51 15° ENE 06:17:51 15° ENE visible
01 Apr ? 07:50:53 10° N 07:54:15 44° NW 07:54:15 44° NW visible
02 Apr ? 06:22:06 10° NE 06:23:50 17° ENE 06:23:50 17° ENE visible
02 Apr ? 07:56:43 10° N 08:00:14 41° NW 08:00:14 41° NW visible
03 Apr ? 06:27:42 10° NE 06:29:48 19° ENE 06:29:48 19° ENE visible
03 Apr ? 08:02:34 10° N 08:06:12 37° WNW 08:06:12 37° WNW visible
04 Apr ? 06:33:18 10° NE 06:35:45 22° ENE 06:35:45 22° ENE visible
04 Apr ? 08:08:24 10° N 08:12:05 32° WNW 08:12:08 32° WNW visible
05 Apr ? 06:38:54 10° NE 06:41:40 26° ENE 06:41:40 26° ENE visible
05 Apr ? 08:14:13 10° N 08:17:46 29° WNW 08:18:03 29° WNW visible
06 Apr ? 06:44:30 10° NNE 06:47:33 30° ENE 06:47:33 30° ENE visible
06 Apr ? 08:20:02 10° N 08:23:26 26° WNW 08:23:57 25° WNW visible
07 Apr ? 06:50:06 10° NNE 06:53:25 35° E 06:53:25 35° E visible
07 Apr ? 08:25:50 10° NNW 08:29:04 23° WNW 08:29:49 22° W visible
08 Apr ? 06:55:41 10° NNE 06:59:16 40° E 06:59:16 40° E visible
08 Apr ? 08:31:37 10° NNW 08:34:41 20° WNW 08:35:39 19° W visible
09 Apr ? 07:01:16 10° NNE 07:05:05 47° E 07:05:05 47° E visible
09 Apr ? 08:37:25 10° NNW 08:40:15 18° WNW 08:41:28 16° W visible
